DFSTH EHBK-EDNY

Flight info

Callsign DFSTH
Flight time 1h 25m
Altitude 21000
Route LNO N852 GTQ/N0270F130 R7 LUPEN Y126 DENEL Y711 NATOR T732 ARFAS
Aircraft PC12/L-SDFGRWY/S

Departure

Time 2026-05-04 16:40
Airport Maastricht Aachen Airport (EHBK)

Arrival

Time 2026-05-04 18:06
Airport Bodensee Airport Friedrichshafen (EDNY)
Time Latitude Longitude Altitude Speed Heading
2026-05-04 16:31 50.91370 5.76801 378 ft 0 kts 348°
2026-05-04 16:35 50.91383 5.76796 406 ft 0 kts 351°
2026-05-04 16:37 50.91397 5.76834 378 ft 8 kts 126°
2026-05-04 16:38 50.91452 5.76978 378 ft 12 kts 32°
2026-05-04 16:39 50.91374 5.77209 379 ft 0 kts 208°
2026-05-04 16:39 50.90797 5.76624 408 ft 89 kts 213°
2026-05-04 16:40 50.89678 5.75460 930 ft 107 kts 211°
2026-05-04 16:40 50.88329 5.74072 1557 ft 132 kts 210°
2026-05-04 16:41 50.86325 5.73633 2227 ft 165 kts 154°
2026-05-04 16:41 50.84768 5.78512 3777 ft 173 kts 109°
2026-05-04 16:42 50.83634 5.83954 5415 ft 174 kts 110°
2026-05-04 16:43 50.82872 5.87605 6504 ft 176 kts 109°
2026-05-04 16:43 50.82095 5.91321 7534 ft 180 kts 109°
2026-05-04 16:43 50.81683 5.93192 8071 ft 181 kts 114°
2026-05-04 16:44 50.77303 5.95014 10215 ft 192 kts 215°
2026-05-04 16:45 50.75213 5.92317 11241 ft 196 kts 219°
2026-05-04 16:46 50.72008 5.88202 12790 ft 201 kts 219°
2026-05-04 16:46 50.69829 5.85404 13776 ft 203 kts 219°
2026-05-04 16:47 50.67637 5.82596 14706 ft 201 kts 218°
2026-05-04 16:47 50.65453 5.79802 15582 ft 202 kts 218°
2026-05-04 16:48 50.62159 5.75593 16864 ft 204 kts 218°
2026-05-04 16:48 50.61060 5.74191 17290 ft 204 kts 218°
2026-05-04 16:49 50.58666 5.71973 18119 ft 203 kts 192°
2026-05-04 16:49 50.55886 5.72616 18839 ft 208 kts 162°
2026-05-04 16:50 50.53162 5.74221 19536 ft 210 kts 162°
2026-05-04 16:50 50.50416 5.75830 20238 ft 212 kts 163°
2026-05-04 16:51 50.47650 5.77449 20942 ft 214 kts 163°
2026-05-04 16:51 50.46208 5.78289 20975 ft 229 kts 163°
2026-05-04 16:51 50.43068 5.80122 20989 ft 250 kts 163°
2026-05-04 16:52 50.39742 5.82066 20991 ft 255 kts 163°
2026-05-04 16:52 50.38088 5.83030 20991 ft 252 kts 163°
2026-05-04 16:53 50.34838 5.84923 20990 ft 249 kts 163°
2026-05-04 16:53 50.29998 5.87737 20989 ft 246 kts 163°
2026-05-04 16:54 50.28396 5.88668 20991 ft 245 kts 163°
2026-05-04 16:55 50.22009 5.92370 20980 ft 244 kts 163°
2026-05-04 16:55 50.18819 5.94215 20981 ft 245 kts 163°
2026-05-04 16:56 50.15623 5.96060 20986 ft 245 kts 163°
2026-05-04 16:56 50.10820 5.98828 20984 ft 246 kts 164°
2026-05-04 16:57 50.09216 5.99752 20981 ft 246 kts 164°
2026-05-04 16:57 50.06025 6.01587 20983 ft 246 kts 164°
2026-05-04 16:58 50.01212 6.04351 20975 ft 245 kts 164°
2026-05-04 16:58 49.99614 6.05268 20974 ft 245 kts 164°
2026-05-04 16:59 49.96422 6.07096 20978 ft 244 kts 164°
2026-05-04 17:00 49.90052 6.10738 20985 ft 244 kts 164°
2026-05-04 17:00 49.85288 6.13557 20989 ft 245 kts 160°
2026-05-04 17:01 49.82172 6.15677 20996 ft 245 kts 161°
2026-05-04 17:01 49.79055 6.17792 20990 ft 247 kts 161°
2026-05-04 17:02 49.75907 6.19930 20992 ft 247 kts 161°
2026-05-04 17:02 49.72771 6.22056 20995 ft 246 kts 161°
2026-05-04 17:03 49.71209 6.23113 20995 ft 245 kts 161°
2026-05-04 17:03 49.69650 6.24168 20995 ft 244 kts 161°
2026-05-04 17:03 49.66544 6.26267 20995 ft 243 kts 161°
2026-05-04 17:04 49.63440 6.28361 20996 ft 244 kts 161°
2026-05-04 17:04 49.60308 6.30382 20997 ft 244 kts 163°
2026-05-04 17:05 49.57702 6.32060 20997 ft 245 kts 162°
2026-05-04 17:05 49.54568 6.34085 20994 ft 244 kts 163°
2026-05-04 17:06 49.51437 6.36101 20993 ft 244 kts 163°
2026-05-04 17:06 49.49871 6.37109 20991 ft 244 kts 163°
2026-05-04 17:07 49.46744 6.39122 20987 ft 243 kts 162°
2026-05-04 17:07 49.45732 6.39867 20990 ft 244 kts 160°
2026-05-04 17:07 49.43682 6.41349 20988 ft 243 kts 161°
2026-05-04 17:07 49.42145 6.42447 20986 ft 244 kts 161°
2026-05-04 17:08 49.40612 6.43557 20990 ft 244 kts 160°
2026-05-04 17:08 49.37546 6.45780 20988 ft 244 kts 161°
2026-05-04 17:08 49.36024 6.46830 20985 ft 242 kts 163°
2026-05-04 17:09 49.34479 6.47853 20984 ft 242 kts 162°
2026-05-04 17:09 49.32938 6.48903 20982 ft 242 kts 162°
2026-05-04 17:09 49.31395 6.49940 20980 ft 242 kts 162°
2026-05-04 17:10 49.28301 6.51996 20983 ft 243 kts 162°
2026-05-04 17:10 49.23646 6.55096 20983 ft 243 kts 162°
2026-05-04 17:11 49.22092 6.56129 20979 ft 243 kts 162°
2026-05-04 17:11 49.20537 6.57162 20980 ft 243 kts 162°
2026-05-04 17:11 49.17433 6.59222 20980 ft 243 kts 162°
2026-05-04 17:12 49.15880 6.60251 20988 ft 243 kts 162°
2026-05-04 17:12 49.12776 6.62306 20987 ft 243 kts 162°
2026-05-04 17:13 49.08131 6.65376 20985 ft 243 kts 162°
2026-05-04 17:14 49.03466 6.68453 20985 ft 244 kts 162°
2026-05-04 17:14 49.01908 6.69479 20985 ft 244 kts 162°
2026-05-04 17:14 48.98843 6.71682 20988 ft 247 kts 150°
2026-05-04 17:15 48.97610 6.73503 21000 ft 253 kts 136°
2026-05-04 17:15 48.95363 6.77639 21001 ft 254 kts 136°
2026-05-04 17:16 48.93105 6.81757 20997 ft 253 kts 136°
2026-05-04 17:16 48.89723 6.87921 20995 ft 252 kts 136°
2026-05-04 17:17 48.88599 6.89965 20996 ft 252 kts 136°
2026-05-04 17:17 48.85245 6.96056 20998 ft 249 kts 135°
2026-05-04 17:18 48.84132 6.98073 21000 ft 249 kts 135°
2026-05-04 17:18 48.81917 7.02078 20990 ft 247 kts 135°
2026-05-04 17:19 48.79715 7.06046 20991 ft 245 kts 135°
2026-05-04 17:19 48.77540 7.09962 20992 ft 244 kts 135°
2026-05-04 17:20 48.75343 7.13830 20991 ft 243 kts 136°
2026-05-04 17:20 48.73141 7.17708 20994 ft 243 kts 136°
2026-05-04 17:20 48.72043 7.19643 20989 ft 242 kts 136°
2026-05-04 17:21 48.69849 7.23498 20992 ft 241 kts 136°
2026-05-04 17:21 48.67659 7.27341 20995 ft 240 kts 136°
2026-05-04 17:22 48.66569 7.29252 20991 ft 240 kts 136°
2026-05-04 17:22 48.65481 7.31159 20994 ft 239 kts 136°
2026-05-04 17:23 48.62230 7.36847 20993 ft 238 kts 136°
2026-05-04 17:23 48.61151 7.38733 20993 ft 237 kts 136°
2026-05-04 17:23 48.59011 7.42466 20996 ft 237 kts 136°
2026-05-04 17:24 48.57933 7.44346 20992 ft 236 kts 136°
2026-05-04 17:24 48.54710 7.49958 20991 ft 235 kts 136°
2026-05-04 17:25 48.53636 7.51824 20993 ft 236 kts 136°
2026-05-04 17:25 48.51483 7.55563 20991 ft 237 kts 136°
2026-05-04 17:26 48.49525 7.59522 21000 ft 238 kts 128°
2026-05-04 17:26 48.46807 7.65797 20997 ft 238 kts 128°
2026-05-04 17:27 48.44987 7.69975 20994 ft 238 kts 128°
2026-05-04 17:27 48.43150 7.74118 20996 ft 236 kts 131°
2026-05-04 17:28 48.41286 7.78164 20996 ft 238 kts 130°
2026-05-04 17:29 48.38375 7.84442 20998 ft 248 kts 130°
2026-05-04 17:29 48.35454 7.90934 20999 ft 251 kts 129°
2026-05-04 17:30 48.32529 7.97540 21002 ft 255 kts 128°
2026-05-04 17:31 48.30572 8.02000 21002 ft 256 kts 129°
2026-05-04 17:31 48.27626 8.08688 21002 ft 255 kts 129°
2026-05-04 17:32 48.25670 8.13120 21004 ft 257 kts 129°
2026-05-04 17:33 48.22668 8.19775 21001 ft 256 kts 130°
2026-05-04 17:33 48.21656 8.21972 21001 ft 256 kts 130°
2026-05-04 17:34 48.18623 8.28596 21000 ft 257 kts 130°
2026-05-04 17:34 48.17610 8.30802 20998 ft 257 kts 129°
2026-05-04 17:35 48.15639 8.38381 21003 ft 263 kts 113°
2026-05-04 17:35 48.14492 8.43588 21004 ft 264 kts 113°
2026-05-04 17:35 48.13919 8.46195 21004 ft 264 kts 113°
2026-05-04 17:36 48.13346 8.48802 21003 ft 264 kts 113°
2026-05-04 17:36 48.12771 8.51412 21004 ft 264 kts 113°
2026-05-04 17:36 48.12194 8.54023 21004 ft 264 kts 113°
2026-05-04 17:36 48.11619 8.56629 20988 ft 264 kts 113°
2026-05-04 17:37 48.11042 8.59234 20991 ft 264 kts 113°
2026-05-04 17:37 48.10465 8.61839 20992 ft 264 kts 113°
2026-05-04 17:37 48.09886 8.64447 20992 ft 264 kts 113°
2026-05-04 17:37 48.09308 8.67052 20992 ft 264 kts 113°
2026-05-04 17:38 48.08727 8.69668 20992 ft 265 kts 113°
2026-05-04 17:38 48.08146 8.72276 20985 ft 265 kts 113°
2026-05-04 17:38 48.07563 8.74892 20985 ft 265 kts 113°
2026-05-04 17:38 48.06978 8.77511 20985 ft 266 kts 113°
2026-05-04 17:39 48.05797 8.82694 20985 ft 263 kts 118°
2026-05-04 17:39 48.04854 8.84989 20982 ft 256 kts 134°
2026-05-04 17:39 48.03713 8.87023 20982 ft 255 kts 135°
2026-05-04 17:40 48.02576 8.89044 20977 ft 255 kts 135°
2026-05-04 17:40 48.01435 8.91085 20978 ft 256 kts 135°
2026-05-04 17:40 48.00294 8.93127 20979 ft 256 kts 135°
2026-05-04 17:40 47.99159 8.95182 20977 ft 257 kts 131°
2026-05-04 17:41 47.98099 8.97333 20981 ft 257 kts 131°
2026-05-04 17:41 47.97023 8.99475 20981 ft 258 kts 131°
2026-05-04 17:41 47.95945 9.01621 20981 ft 259 kts 131°
2026-05-04 17:41 47.94871 9.03770 20973 ft 259 kts 131°
2026-05-04 17:42 47.93794 9.05928 20976 ft 259 kts 131°
2026-05-04 17:42 47.92717 9.08081 20975 ft 259 kts 131°
2026-05-04 17:42 47.91640 9.10228 20977 ft 259 kts 131°
2026-05-04 17:42 47.90563 9.12376 20976 ft 259 kts 131°
2026-05-04 17:43 47.89487 9.14522 20974 ft 259 kts 131°
2026-05-04 17:43 47.88410 9.16666 20977 ft 259 kts 131°
2026-05-04 17:43 47.87330 9.18815 20976 ft 259 kts 131°
2026-05-04 17:43 47.86252 9.20958 20977 ft 258 kts 131°
2026-05-04 17:44 47.85172 9.23104 20973 ft 260 kts 132°
2026-05-04 17:44 47.83970 9.25130 20980 ft 264 kts 139°
2026-05-04 17:44 47.82698 9.27080 20982 ft 269 kts 139°
2026-05-04 17:44 47.81388 9.29096 20983 ft 273 kts 139°
2026-05-04 17:45 47.80068 9.31151 20963 ft 275 kts 139°
2026-05-04 17:45 47.78743 9.33213 20976 ft 277 kts 139°
2026-05-04 17:45 47.77422 9.35262 20807 ft 271 kts 139°
2026-05-04 17:45 47.76111 9.37283 20250 ft 272 kts 139°
2026-05-04 17:46 47.74804 9.39303 19795 ft 269 kts 139°
2026-05-04 17:46 47.73513 9.41302 19346 ft 267 kts 139°
2026-05-04 17:46 47.72228 9.43289 18926 ft 265 kts 139°
2026-05-04 17:46 47.70953 9.45257 18521 ft 264 kts 139°
2026-05-04 17:47 47.69685 9.47213 18083 ft 262 kts 139°
2026-05-04 17:47 47.68427 9.49153 17650 ft 260 kts 139°
2026-05-04 17:47 47.67179 9.51067 17225 ft 256 kts 140°
2026-05-04 17:47 47.65738 9.52486 16762 ft 246 kts 165°
2026-05-04 17:48 47.64106 9.52675 16384 ft 238 kts 191°
2026-05-04 17:48 47.62615 9.51737 15994 ft 234 kts 216°
2026-05-04 17:48 47.61576 9.49896 15591 ft 235 kts 242°
2026-05-04 17:48 47.61216 9.47572 15218 ft 239 kts 266°
2026-05-04 17:49 47.61633 9.45176 14834 ft 247 kts 294°
2026-05-04 17:49 47.62805 9.43285 14438 ft 255 kts 321°
2026-05-04 17:49 47.64383 9.42006 13991 ft 261 kts 332°
2026-05-04 17:49 47.66039 9.40909 13637 ft 260 kts 333°
2026-05-04 17:50 47.67693 9.39842 13264 ft 259 kts 333°
2026-05-04 17:50 47.69336 9.38778 12902 ft 257 kts 333°
2026-05-04 17:50 47.70968 9.37725 12537 ft 254 kts 335°
2026-05-04 17:50 47.72720 9.37385 12155 ft 258 kts
2026-05-04 17:51 47.74362 9.38348 11825 ft 254 kts 37°
2026-05-04 17:51 47.75511 9.40277 11479 ft 248 kts 59°
2026-05-04 17:51 47.76400 9.42460 11159 ft 245 kts 63°
2026-05-04 17:51 47.77245 9.44654 10846 ft 244 kts 63°
2026-05-04 17:52 47.78086 9.46840 10554 ft 242 kts 64°
2026-05-04 17:52 47.78919 9.49007 10261 ft 241 kts 63°
2026-05-04 17:52 47.79743 9.51163 9969 ft 239 kts 63°
2026-05-04 17:52 47.80566 9.53307 9663 ft 238 kts 63°
2026-05-04 17:53 47.81382 9.55443 9361 ft 236 kts 63°
2026-05-04 17:53 47.82189 9.57566 9024 ft 235 kts 63°
2026-05-04 17:53 47.82985 9.59677 8731 ft 232 kts 63°
2026-05-04 17:53 47.83737 9.61727 8431 ft 231 kts 63°
2026-05-04 17:54 47.84488 9.63797 8132 ft 230 kts 63°
2026-05-04 17:54 47.85240 9.65890 7827 ft 229 kts 63°
2026-05-04 17:54 47.85984 9.67974 7519 ft 228 kts 64°
2026-05-04 17:54 47.86724 9.70060 7215 ft 227 kts 63°
2026-05-04 17:55 47.87253 9.72236 6852 ft 225 kts 86°
2026-05-04 17:55 47.86952 9.74463 6550 ft 220 kts 120°
2026-05-04 17:55 47.85925 9.76068 6093 ft 212 kts 147°
2026-05-04 17:55 47.84648 9.77194 5341 ft 214 kts 153°
2026-05-04 17:56 47.83338 9.78230 4642 ft 211 kts 153°
2026-05-04 17:56 47.81894 9.78657 4014 ft 222 kts 188°
2026-05-04 17:56 47.80576 9.77862 3990 ft 188 kts 213°
2026-05-04 17:56 47.79567 9.76904 3989 ft 158 kts 214°
2026-05-04 17:57 47.78707 9.76086 3987 ft 137 kts 214°
2026-05-04 17:57 47.77943 9.75364 3986 ft 124 kts 214°
2026-05-04 17:57 47.77238 9.74704 3984 ft 115 kts 214°
2026-05-04 17:57 47.76635 9.74065 3988 ft 100 kts 221°
2026-05-04 17:58 47.76101 9.73402 4009 ft 99 kts 221°
2026-05-04 17:58 47.75630 9.72714 3997 ft 90 kts 238°
2026-05-04 17:58 47.75294 9.71991 3999 ft 81 kts 236°
2026-05-04 17:58 47.74988 9.71303 4006 ft 80 kts 244°
2026-05-04 17:59 47.74698 9.70619 4003 ft 79 kts 245°
2026-05-04 17:59 47.74420 9.69943 4004 ft 73 kts 246°
2026-05-04 17:59 47.73892 9.68641 3884 ft 77 kts 245°
2026-05-04 18:00 47.73609 9.67961 3789 ft 78 kts 246°
2026-05-04 18:00 47.73331 9.67275 3699 ft 78 kts 247°
2026-05-04 18:00 47.73049 9.66590 3602 ft 78 kts 248°
2026-05-04 18:00 47.72769 9.65879 3464 ft 80 kts 248°
2026-05-04 18:01 47.72499 9.65165 3405 ft 79 kts 249°
2026-05-04 18:01 47.72229 9.64468 3309 ft 80 kts 249°
2026-05-04 18:01 47.71948 9.63761 3269 ft 78 kts 249°
2026-05-04 18:02 47.71405 9.62388 3065 ft 76 kts 250°
2026-05-04 18:02 47.71160 9.61719 2980 ft 73 kts 254°
2026-05-04 18:02 47.70911 9.61043 2844 ft 77 kts 249°
2026-05-04 18:02 47.70637 9.60353 2765 ft 77 kts 248°
2026-05-04 18:03 47.70372 9.59663 2662 ft 75 kts 251°
2026-05-04 18:03 47.70157 9.59010 2626 ft 69 kts 251°
2026-05-04 18:03 47.69932 9.58342 2507 ft 74 kts 252°
2026-05-04 18:03 47.69662 9.57664 2334 ft 82 kts 249°
2026-05-04 18:04 47.69461 9.57185 2242 ft 82 kts 248°
2026-05-04 18:04 47.69184 9.56461 2087 ft 82 kts 249°
2026-05-04 18:04 47.68447 9.54612 1780 ft 88 kts 245°
2026-05-04 18:05 47.68171 9.53857 1660 ft 77 kts 248°
2026-05-04 18:05 47.67923 9.53196 1519 ft 72 kts 249°
2026-05-04 18:05 47.67757 9.52771 1456 ft 70 kts 249°
2026-05-04 18:05 47.67460 9.51982 1359 ft 57 kts 240°
2026-05-04 18:06 47.67207 9.51341 1359 ft 39 kts 239°
2026-05-04 18:06 47.67110 9.51261 1356 ft 16 kts 142°
2026-05-04 18:06 47.67051 9.51328 1354 ft 4 kts 142°
2026-05-04 18:07 47.67001 9.51288 1354 ft 14 kts 241°
2026-05-04 18:07 47.66923 9.51188 1352 ft 18 kts 155°
2026-05-04 18:07 47.66861 9.51160 1355 ft 13 kts 271°
2026-05-04 18:07 47.66845 9.51128 1355 ft 0 kts 149°